Hourly Data Report for May 26, 2015

All times are specified in Local Standard Time (LST). Add 1 hour to adjust for Daylight Saving Time where and when it is observed.

CHARLOTTETOWN A
PRINCE EDWARD ISLAND

46°17'21.000" N
63°07'09.000" W
48.50 m
8300301
71706
YYG

Download Data

Hourly Data (May 2015)
Hourly Data Report for May 26, 2015
Temp Definition
°C
Dew Point Temp Definition
°C
Rel Hum Definition
%
Wind Dir Definition
10's deg

Wind Spd Definition
km/h
Visibility Definition
km
Stn Press Definition
kPa
Hmdx Definition


Wind Chill Definition


Weather Definition


TIME
00:00 Legend Double Dagger 14.5 8.1 65 24 17 24.1 101.31     LegendNANA
01:00 Legend Double Dagger 14.6 8.6 67 23 16 24.1 101.32     LegendNANA
02:00 Legend Double Dagger 14.3 8.7 69 23 16 24.1 101.32     Mostly Cloudy
03:00 Legend Double Dagger 15.2 9.4 68 22 16 24.1 101.33     LegendNANA
04:00 Legend Double Dagger 15.2 9.8 70 22 15 24.1 101.32     LegendNANA
05:00 Legend Double Dagger 15.6 10.2 70 25 18 24.1 101.39     Cloudy
06:00 Legend Double Dagger 15.2 10.4 73 23 10 24.1 101.44     Rain
07:00 Legend Double Dagger 14.9 11.7 81 19 17 24.1 101.48     Rain
08:00 Legend Double Dagger 14.0 11.6 85 16 21 19.3 101.41     Rain
09:00 Legend Double Dagger 12.5 11.6 94 16 27 4.0 101.36     Moderate Rain,Fog
10:00 Legend Double Dagger 12.9 12.3 96 16 26 4.8 101.25     Rain,Fog
11:00 Legend Double Dagger 12.9 12.4 97 18 29 3.2 101.19     Rain,Fog
12:00 Legend Double Dagger 13.1 12.8 98 19 25 8.1 101.12     Rain,Fog
13:00 Legend Double Dagger 13.7 12.9 95 19 25 24.1 101.06     Rain
14:00 Legend Double Dagger 15.8 14.4 91 21 29 24.1 101.02     Cloudy
15:00 Legend Double Dagger 18.1 15.4 84 21 27 24.1 100.97     LegendNANA
16:00 Legend Double Dagger 18.8 15.3 80 22 34 24.1 100.96     LegendNANA
17:00 Legend Double Dagger 19.3 15.2 77 22 27 24.1 100.95     Mostly Cloudy
18:00 Legend Double Dagger 17.5 14.3 81 22 30 24.1 100.96     LegendNANA
19:00 Legend Double Dagger 17.3 14.4 83 21 24 24.1 101.01     LegendNANA
20:00 Legend Double Dagger 16.0 14.0 88 22 22 24.1 101.04     Mostly Cloudy
21:00 Legend Double Dagger 14.9 13.5 91 21 15 16.1 101.08     LegendNANA
22:00 Legend Double Dagger 15.7 13.9 89 21 19 16.1 101.08     LegendNANA
23:00 Legend Double Dagger 16.2 13.9 86 22 25 16.1 101.07     Mainly Clear

Notes on Data Quality.

Legend

  • E = Estimated
  • M = Missing
  • NA = Not Available
  • ‡ = Partner data that is not subject to review by the National Climate Archives
Date modified: